Location: Titusville
(28.6120°N, 80.8080°W)
Time: 16:01:11
(UTC-04:00)

ISS - Visible Passes

Search period start: 15 July 2018 00:00
Search period end: 25 July 2018 00:00
Orbit: 402 x 408 km, 51.6° (Epoch: 16 July)

Date Brightness Start Highest point End Pass type
(mag) Time Alt. Az. Time Alt. Az. Time Alt. Az.
18 Jul -0.8 05:51:16 10° N 05:53:46 20° NE 05:56:16 10° E visible
18 Jul -1.9 20:51:14 10° SSE 20:52:47 13° SE 20:54:19 10° E visible
18 Jul -2.1 22:26:00 10° WSW 22:28:59 33° NW 22:30:47 19° N visible
19 Jul -0.2 05:00:34 10° NNE 05:01:29 11° NE 05:02:24 10° NE visible
19 Jul -3.8 21:33:37 10° SW 21:36:51 80° NW 21:40:08 10° NE visible
20 Jul -3.0 05:42:55 10° NW 05:46:08 55° NE 05:49:21 10° SE visible
20 Jul -3.4 20:41:45 10° SSW 20:44:49 39° SE 20:47:53 10° ENE visible
20 Jul -0.4 22:19:40 10° WNW 22:21:25 14° NW 22:23:10 10° N visible
21 Jul -1.4 04:51:09 10° NNW 04:53:58 25° NE 04:56:45 10° E visible
21 Jul -1.3 21:26:21 10° W 21:29:08 25° NW 21:31:55 10° NNE visible
22 Jul -0.5 03:59:56 10° N 04:01:40 14° NE 04:03:24 10° ENE visible
22 Jul -3.5 05:35:10 10° WNW 05:38:17 40° SW 05:41:23 10° SSE visible
23 Jul -1.1 04:49:10 12° SE 04:49:10 12° SE 04:49:28 10° SE visible
23 Jul -0.2 21:20:36 10° NW 21:21:33 11° NW 21:22:29 10° NNW visible
